Location: *
(34.8620°S, 39.3380°E)
Time: 19:07:01
(UTC+00:00)

Lacrosse 4 Rocket - Pass Details

Date: 03 December 2021
Orbit: 535 x 620 km, 68.0° (Epoch: 24 January)

Event Time Altitude Azimuth Distance (km) Brightness Sun altitude
Rises 17:42:04 0° 195° (SSW) 2,739 5.9 -14.2°
Reaches altitude 10° 17:44:28 10° 185° (S) 1,830 4.7 -14.6°
Maximum altitude 17:48:10 33° 120° (ESE) 939 2.3 -15.1°
Enters shadow 17:49:42 24° 79° (E) 1,139 2.4 -15.4°
